Starlink 32812

operational
NORAD ID: 63038 Int'l Des: 2025-034 Owner: SPXS Country: US Constellation: starlink
LEOCIRCULAR

About Starlink 32812

Description loading...

Live Position

Loading 3D Globe...

Upcoming Passes

Altitude History

Altitude vs Time

uPlot chart will show altitude changes over time

Two-Line Element Set

1 63038U 25034K 25277.45950582 .00604538 00000-0 14009-1 0 9996
2 63038 53.1571 264.7661 0013403 12.3082 347.8248 15.39471469 35152
Epoch: Oct 4, 2025 • Age: 20 hours

Current Status

Altitude 461.2 km
Velocity 7.63 km/s
Sub-Earth Point -26.31°S, 11.3°W
Launch Date Feb 18, 2025
Age 0.6 years
Type internet

Technical Details

Classification Payload
Mass 730.00 kg
Dry Mass 700.00 kg
Total Mass 730.00 kg
Length 0.30 m
Diameter 4.10 m
Span 29.00 m
Shape Box + pan
Manufacturer SPXS
Bus Type Starlink V2M
Phase Status In Orbit
Owner/State SPXS/US

Large Constellations

Loading constellations...